LIC0195 LEBA-LEBL

Flight info

Callsign LIC0195
Flight time 1h 7m
Altitude 38000
Route ALCOL N747 YES M985 VLC L34 CASIM N608 MATEX
Aircraft A320/M-SDE3FGHIRWY/LB1

Departure

Time 2026-05-06 16:39
Airport Córdoba Airport (LEBA)

Arrival

Time 2026-05-06 17:46
Airport Josep Tarradellas Barcelona-El Prat Airport (LEBL)
Time Latitude Longitude Altitude Speed Heading
2026-05-06 16:14 37.84348 -4.84532 310 ft 0 kts 118°
2026-05-06 16:27 37.84359 -4.84553 308 ft 4 kts 150°
2026-05-06 16:28 37.84380 -4.84555 307 ft 4 kts 214°
2026-05-06 16:28 37.84391 -4.84545 308 ft 0 kts 218°
2026-05-06 16:30 37.84386 -4.84549 308 ft 5 kts 217°
2026-05-06 16:31 37.84365 -4.84568 310 ft 0 kts 215°
2026-05-06 16:31 37.84350 -4.84580 309 ft 7 kts 213°
2026-05-06 16:31 37.84340 -4.84589 310 ft 0 kts 213°
2026-05-06 16:32 37.84339 -4.84590 310 ft 0 kts 213°
2026-05-06 16:32 37.84338 -4.84591 309 ft 0 kts 213°
2026-05-06 16:33 37.84336 -4.84593 309 ft 1 kts 213°
2026-05-06 16:34 37.84331 -4.84597 309 ft 0 kts 213°
2026-05-06 16:35 37.84722 -4.84521 309 ft 0 kts 209°
2026-05-06 16:35 37.84717 -4.84524 309 ft 8 kts 207°
2026-05-06 16:35 37.84680 -4.84542 309 ft 0 kts 200°
2026-05-06 16:38 37.84595 -4.84609 307 ft 34 kts 214°
2026-05-06 16:39 37.84140 -4.84914 302 ft 117 kts 208°
2026-05-06 16:39 37.83198 -4.85534 376 ft 180 kts 206°
2026-05-06 16:39 37.82084 -4.86265 1301 ft 181 kts 209°
2026-05-06 16:39 37.80982 -4.87044 2299 ft 184 kts 211°
2026-05-06 16:40 37.79808 -4.87885 2821 ft 204 kts 211°
2026-05-06 16:40 37.78517 -4.88806 3341 ft 220 kts 210°
2026-05-06 16:40 37.77178 -4.89754 4248 ft 220 kts 211°
2026-05-06 16:40 37.75827 -4.90691 5114 ft 223 kts 207°
2026-05-06 16:41 37.74298 -4.91016 5892 ft 231 kts 168°
2026-05-06 16:41 37.72908 -4.90018 6651 ft 237 kts 129°
2026-05-06 16:41 37.72302 -4.88103 7394 ft 242 kts 90°
2026-05-06 16:41 37.72574 -4.85997 8178 ft 245 kts 71°
2026-05-06 16:42 37.73014 -4.83911 8975 ft 248 kts 88°
2026-05-06 16:42 37.72770 -4.81754 9761 ft 251 kts 107°
2026-05-06 16:42 37.72164 -4.79678 10508 ft 254 kts 113°
2026-05-06 16:42 37.71485 -4.77607 11268 ft 256 kts 114°
2026-05-06 16:43 37.70789 -4.75530 12039 ft 258 kts 115°
2026-05-06 16:43 37.70083 -4.73432 12820 ft 261 kts 115°
2026-05-06 16:43 37.69383 -4.71302 13586 ft 265 kts 111°
2026-05-06 16:43 37.69129 -4.68987 14223 ft 272 kts 85°
2026-05-06 16:44 37.69668 -4.66671 14735 ft 285 kts 60°
2026-05-06 16:44 37.71027 -4.64764 14940 ft 305 kts 34°
2026-05-06 16:44 37.72841 -4.63178 15099 ft 329 kts 33°
2026-05-06 16:44 37.74793 -4.61483 15247 ft 352 kts 33°
2026-05-06 16:45 37.76867 -4.59673 15473 ft 370 kts 33°
2026-05-06 16:45 37.78995 -4.57797 16025 ft 376 kts 34°
2026-05-06 16:45 37.81148 -4.55880 16661 ft 381 kts 34°
2026-05-06 16:45 37.83312 -4.53913 17282 ft 385 kts 37°
2026-05-06 16:46 37.85221 -4.51508 17896 ft 391 kts 51°
2026-05-06 16:46 37.86679 -4.48578 18451 ft 396 kts 64°
2026-05-06 16:46 37.87810 -4.45377 18977 ft 401 kts 66°
2026-05-06 16:46 37.88919 -4.42117 19526 ft 405 kts 67°
2026-05-06 16:47 37.90019 -4.38824 20047 ft 409 kts 67°
2026-05-06 16:47 37.91121 -4.35491 20570 ft 413 kts 67°
2026-05-06 16:47 37.92235 -4.32118 21082 ft 416 kts 67°
2026-05-06 16:47 37.93361 -4.28721 21577 ft 420 kts 67°
2026-05-06 16:48 37.94501 -4.25293 22065 ft 424 kts 67°
2026-05-06 16:48 37.95654 -4.21840 22559 ft 428 kts 67°
2026-05-06 16:48 37.96819 -4.18349 23040 ft 432 kts 67°
2026-05-06 16:48 37.97993 -4.14832 23498 ft 435 kts 67°
2026-05-06 16:49 37.99175 -4.11283 23881 ft 439 kts 67°
2026-05-06 16:49 38.00363 -4.07699 24263 ft 443 kts 67°
2026-05-06 16:49 38.01559 -4.04084 24623 ft 447 kts 68°
2026-05-06 16:49 38.02767 -4.00434 24971 ft 451 kts 68°
2026-05-06 16:50 38.03987 -3.96751 25340 ft 454 kts 68°
2026-05-06 16:50 38.05215 -3.93044 25701 ft 458 kts 68°
2026-05-06 16:50 38.06452 -3.89305 26057 ft 462 kts 68°
2026-05-06 16:50 38.07697 -3.85529 26405 ft 465 kts 68°
2026-05-06 16:51 38.08947 -3.81725 26753 ft 469 kts 68°
2026-05-06 16:51 38.10202 -3.77897 27121 ft 471 kts 68°
2026-05-06 16:51 38.11462 -3.74051 27479 ft 474 kts 68°
2026-05-06 16:51 38.12717 -3.70219 27814 ft 478 kts 68°
2026-05-06 16:52 38.14012 -3.66262 28160 ft 482 kts 68°
2026-05-06 16:52 38.15190 -3.62324 28455 ft 484 kts 75°
2026-05-06 16:52 38.15993 -3.58170 28779 ft 486 kts 81°
2026-05-06 16:52 38.16698 -3.53953 29093 ft 489 kts 81°
2026-05-06 16:53 38.17419 -3.49646 29418 ft 493 kts 81°
2026-05-06 16:53 38.18126 -3.45434 29724 ft 496 kts 81°
2026-05-06 16:53 38.18850 -3.41125 30014 ft 499 kts 81°
2026-05-06 16:53 38.19585 -3.36752 30296 ft 501 kts 81°
2026-05-06 16:54 38.20305 -3.32471 30566 ft 503 kts 81°
2026-05-06 16:54 38.21034 -3.28116 30822 ft 505 kts 81°
2026-05-06 16:54 38.21765 -3.23734 31074 ft 507 kts 81°
2026-05-06 16:54 38.22493 -3.19331 31303 ft 510 kts 81°
2026-05-06 16:55 38.23221 -3.14910 31544 ft 512 kts 81°
2026-05-06 16:55 38.23952 -3.10466 31855 ft 513 kts 81°
2026-05-06 16:55 38.24682 -3.06029 32217 ft 512 kts 81°
2026-05-06 16:55 38.25411 -3.01589 32538 ft 513 kts 81°
2026-05-06 16:56 38.26143 -2.97148 32850 ft 514 kts 81°
2026-05-06 16:56 38.26877 -2.92693 33149 ft 515 kts 81°
2026-05-06 16:56 38.27607 -2.88231 33476 ft 515 kts 81°
2026-05-06 16:56 38.28331 -2.83765 33785 ft 516 kts 81°
2026-05-06 16:57 38.29053 -2.79289 34073 ft 516 kts 81°
2026-05-06 16:57 38.29772 -2.74816 34370 ft 516 kts 81°
2026-05-06 16:57 38.30489 -2.70347 34675 ft 515 kts 81°
2026-05-06 16:57 38.31205 -2.65882 34980 ft 514 kts 81°
2026-05-06 16:58 38.31923 -2.61426 35284 ft 513 kts 81°
2026-05-06 16:58 38.32638 -2.56980 35598 ft 512 kts 81°
2026-05-06 16:58 38.33348 -2.52537 35877 ft 512 kts 81°
2026-05-06 16:58 38.34052 -2.48099 36163 ft 511 kts 81°
2026-05-06 16:59 38.34753 -2.43663 36459 ft 510 kts 81°
2026-05-06 16:59 38.35604 -2.39281 36743 ft 510 kts 72°
2026-05-06 16:59 38.36923 -2.35092 36997 ft 510 kts 63°
2026-05-06 16:59 38.38696 -2.31185 37266 ft 508 kts 54°
2026-05-06 17:00 38.40825 -2.27612 37490 ft 506 kts 50°
2026-05-06 17:00 38.43010 -2.24091 37748 ft 506 kts 50°
2026-05-06 17:00 38.45176 -2.20588 37890 ft 506 kts 50°
2026-05-06 17:01 38.49509 -2.13538 37910 ft 504 kts 50°
2026-05-06 17:01 38.53823 -2.06489 37909 ft 504 kts 50°
2026-05-06 17:02 38.58140 -1.99441 37907 ft 503 kts 50°
2026-05-06 17:02 38.62463 -1.92400 37916 ft 503 kts 50°
2026-05-06 17:03 38.66777 -1.85336 37933 ft 504 kts 50°
2026-05-06 17:03 38.71087 -1.78258 37928 ft 504 kts 50°
2026-05-06 17:04 38.75404 -1.71173 37925 ft 505 kts 50°
2026-05-06 17:04 38.79712 -1.64081 37932 ft 505 kts 50°
2026-05-06 17:05 38.84005 -1.56977 37933 ft 505 kts 50°
2026-05-06 17:05 38.88292 -1.49848 37955 ft 505 kts 50°
2026-05-06 17:06 38.91859 -1.43923 37953 ft 504 kts 50°
2026-05-06 17:06 38.96151 -1.36801 37949 ft 504 kts 50°
2026-05-06 17:07 39.00428 -1.29670 37945 ft 504 kts 50°
2026-05-06 17:07 39.04697 -1.22529 37942 ft 503 kts 50°
2026-05-06 17:08 39.08964 -1.15381 37947 ft 503 kts 50°
2026-05-06 17:08 39.13230 -1.08235 37962 ft 503 kts 51°
2026-05-06 17:09 39.17490 -1.01083 37960 ft 503 kts 50°
2026-05-06 17:09 39.21739 -0.93920 37957 ft 502 kts 51°
2026-05-06 17:10 39.25969 -0.86756 37955 ft 502 kts 51°
2026-05-06 17:10 39.30207 -0.79590 37953 ft 502 kts 51°
2026-05-06 17:11 39.34438 -0.72418 37937 ft 502 kts 51°
2026-05-06 17:11 39.38659 -0.65235 37962 ft 502 kts 51°
2026-05-06 17:12 39.42875 -0.58044 37960 ft 502 kts 51°
2026-05-06 17:12 39.47144 -0.50910 37957 ft 500 kts 45°
2026-05-06 17:13 39.52372 -0.45128 37956 ft 491 kts 28°
2026-05-06 17:13 39.58135 -0.40369 37971 ft 491 kts 28°
2026-05-06 17:14 39.63890 -0.35580 37969 ft 491 kts 28°
2026-05-06 17:14 39.69638 -0.30775 37968 ft 491 kts 28°
2026-05-06 17:15 39.75379 -0.25974 37958 ft 491 kts 28°
2026-05-06 17:15 39.81122 -0.21155 37982 ft 491 kts 28°
2026-05-06 17:16 39.86870 -0.16339 37977 ft 491 kts 28°
2026-05-06 17:16 39.92586 -0.11533 37970 ft 491 kts 29°
2026-05-06 17:17 39.98324 -0.06694 37966 ft 491 kts 29°
2026-05-06 17:17 40.04053 -0.01850 37993 ft 491 kts 29°
2026-05-06 17:17 40.06936 0.00585 37741 ft 499 kts 29°
2026-05-06 17:18 40.09875 0.03066 37471 ft 507 kts 29°
2026-05-06 17:18 40.12843 0.05576 37207 ft 510 kts 29°
2026-05-06 17:18 40.15829 0.08108 36895 ft 512 kts 29°
2026-05-06 17:18 40.18824 0.10657 35948 ft 517 kts 28°
2026-05-06 17:19 40.21873 0.13102 35330 ft 507 kts 22°
2026-05-06 17:19 40.25035 0.14994 34367 ft 493 kts 13°
2026-05-06 17:19 40.28283 0.16307 33192 ft 487 kts
2026-05-06 17:19 40.31519 0.17512 32352 ft 476 kts
2026-05-06 17:20 40.34638 0.18679 31857 ft 459 kts
2026-05-06 17:20 40.37678 0.19814 31266 ft 452 kts
2026-05-06 17:20 40.40699 0.20937 30679 ft 451 kts
2026-05-06 17:20 40.43665 0.22039 30109 ft 450 kts
2026-05-06 17:21 40.46675 0.23161 29477 ft 448 kts
2026-05-06 17:21 40.49617 0.24511 28923 ft 450 kts 20°
2026-05-06 17:21 40.52325 0.26594 28337 ft 454 kts 32°
2026-05-06 17:21 40.54686 0.29353 27768 ft 455 kts 45°
2026-05-06 17:22 40.56596 0.32682 27400 ft 458 kts 57°
2026-05-06 17:22 40.57987 0.36441 26979 ft 457 kts 70°
2026-05-06 17:22 40.58952 0.40417 26563 ft 456 kts 73°
2026-05-06 17:22 40.59890 0.44401 26160 ft 454 kts 73°
2026-05-06 17:23 40.60819 0.48356 25749 ft 451 kts 72°
2026-05-06 17:23 40.61742 0.52284 25346 ft 448 kts 72°
2026-05-06 17:23 40.62662 0.56188 24943 ft 445 kts 72°
2026-05-06 17:23 40.63575 0.60061 24540 ft 441 kts 72°
2026-05-06 17:24 40.64478 0.63904 24150 ft 438 kts 72°
2026-05-06 17:24 40.65372 0.67720 23755 ft 435 kts 72°
2026-05-06 17:24 40.66255 0.71505 23341 ft 431 kts 72°
2026-05-06 17:24 40.67132 0.75268 22936 ft 428 kts 72°
2026-05-06 17:25 40.68000 0.79004 22552 ft 426 kts 72°
2026-05-06 17:25 40.68864 0.82721 22172 ft 423 kts 72°
2026-05-06 17:25 40.69710 0.86366 21798 ft 420 kts 72°
2026-05-06 17:25 40.70560 0.90031 21421 ft 416 kts 72°
2026-05-06 17:26 40.71412 0.93715 21042 ft 413 kts 72°
2026-05-06 17:26 40.72243 0.97320 20673 ft 410 kts 72°
2026-05-06 17:26 40.73057 1.00852 20310 ft 406 kts 72°
2026-05-06 17:26 40.73885 1.04450 19941 ft 403 kts 72°
2026-05-06 17:27 40.74684 1.07924 19583 ft 400 kts 72°
2026-05-06 17:27 40.75486 1.11423 19229 ft 397 kts 72°
2026-05-06 17:27 40.76280 1.14893 18877 ft 394 kts 72°
2026-05-06 17:27 40.77072 1.18353 18527 ft 393 kts 72°
2026-05-06 17:28 40.77859 1.21797 18171 ft 391 kts 72°
2026-05-06 17:28 40.78640 1.25217 17799 ft 388 kts 72°
2026-05-06 17:28 40.79414 1.28611 17461 ft 385 kts 72°
2026-05-06 17:28 40.80179 1.31976 17121 ft 381 kts 72°
2026-05-06 17:29 40.80934 1.35316 16789 ft 378 kts 72°
2026-05-06 17:29 40.81688 1.38624 16458 ft 375 kts 70°
2026-05-06 17:29 40.82834 1.41674 16201 ft 369 kts 53°
2026-05-06 17:29 40.84317 1.44428 15942 ft 367 kts 52°
2026-05-06 17:30 40.85797 1.47165 15686 ft 365 kts 53°
2026-05-06 17:30 40.87268 1.49887 15441 ft 363 kts 53°
2026-05-06 17:30 40.88728 1.52593 15186 ft 361 kts 53°
2026-05-06 17:30 40.90184 1.55287 14951 ft 360 kts 53°
2026-05-06 17:31 40.91631 1.57971 14701 ft 357 kts 53°
2026-05-06 17:31 40.93056 1.60641 14455 ft 355 kts 53°
2026-05-06 17:31 40.94450 1.63321 14218 ft 352 kts 54°
2026-05-06 17:31 40.95822 1.65994 13978 ft 350 kts 54°
2026-05-06 17:32 40.97183 1.68656 13742 ft 348 kts 54°
2026-05-06 17:32 40.98535 1.71301 13475 ft 346 kts 54°
2026-05-06 17:32 40.99866 1.73899 13214 ft 345 kts 54°
2026-05-06 17:32 41.01225 1.76554 12946 ft 343 kts 54°
2026-05-06 17:33 41.02563 1.79165 12682 ft 342 kts 54°
2026-05-06 17:33 41.03897 1.81760 12422 ft 340 kts 54°
2026-05-06 17:33 41.05226 1.84346 12167 ft 339 kts 54°
2026-05-06 17:33 41.06544 1.86922 11909 ft 337 kts 54°
2026-05-06 17:34 41.07856 1.89493 11663 ft 336 kts 54°
2026-05-06 17:34 41.09146 1.92016 11412 ft 335 kts 54°
2026-05-06 17:34 41.10449 1.94563 11167 ft 333 kts 54°
2026-05-06 17:34 41.11744 1.97103 10930 ft 332 kts 54°
2026-05-06 17:35 41.13033 1.99634 10680 ft 330 kts 54°
2026-05-06 17:35 41.14315 2.02152 10436 ft 329 kts 54°
2026-05-06 17:35 41.15589 2.04654 10191 ft 323 kts 54°
2026-05-06 17:36 41.17940 2.09291 9821 ft 282 kts 54°
2026-05-06 17:36 41.19019 2.11416 9688 ft 274 kts 53°
2026-05-06 17:36 41.20083 2.13506 9204 ft 271 kts 53°
2026-05-06 17:36 41.21128 2.15564 8682 ft 267 kts 53°
2026-05-06 17:37 41.22157 2.17592 8167 ft 263 kts 53°
2026-05-06 17:37 41.23172 2.19593 7661 ft 260 kts 53°
2026-05-06 17:37 41.24175 2.21573 7163 ft 257 kts 53°
2026-05-06 17:37 41.25179 2.23558 6669 ft 258 kts 53°
2026-05-06 17:38 41.26170 2.25519 6171 ft 253 kts 53°
2026-05-06 17:38 41.27143 2.27449 5664 ft 249 kts 53°
2026-05-06 17:38 41.28104 2.29353 5160 ft 247 kts 54°
2026-05-06 17:38 41.29057 2.31236 4654 ft 245 kts 53°
2026-05-06 17:39 41.29994 2.33090 4253 ft 237 kts 54°
2026-05-06 17:39 41.30901 2.34887 3864 ft 231 kts 55°
2026-05-06 17:39 41.31774 2.36631 3589 ft 222 kts 55°
2026-05-06 17:39 41.32544 2.38392 3365 ft 220 kts 64°
2026-05-06 17:40 41.33369 2.40079 3148 ft 217 kts 41°
2026-05-06 17:40 41.34686 2.41007 3025 ft 217 kts 11°
2026-05-06 17:40 41.36169 2.40989 3008 ft 214 kts 341°
2026-05-06 17:40 41.37456 2.40063 3007 ft 210 kts 314°
2026-05-06 17:41 41.38253 2.38477 3004 ft 206 kts 287°
2026-05-06 17:41 41.38413 2.36609 3004 ft 204 kts 263°
2026-05-06 17:41 41.38278 2.34757 3004 ft 196 kts 263°
2026-05-06 17:41 41.38134 2.32969 3002 ft 193 kts 256°
2026-05-06 17:42 41.37689 2.31305 3022 ft 191 kts 246°
2026-05-06 17:42 41.37147 2.29680 3015 ft 191 kts 245°
2026-05-06 17:42 41.36603 2.28076 2860 ft 187 kts 245°
2026-05-06 17:42 41.36081 2.26539 2646 ft 180 kts 243°
2026-05-06 17:43 41.35565 2.25022 2421 ft 180 kts 243°
2026-05-06 17:43 41.35046 2.23495 2180 ft 182 kts 244°
2026-05-06 17:43 41.34523 2.21960 1931 ft 182 kts 243°
2026-05-06 17:43 41.34014 2.20462 1700 ft 171 kts 242°
2026-05-06 17:44 41.33545 2.19081 1480 ft 156 kts 243°
2026-05-06 17:44 41.33118 2.17828 1284 ft 142 kts 242°
2026-05-06 17:44 41.32730 2.16693 1084 ft 132 kts 242°
2026-05-06 17:44 41.32360 2.15609 910 ft 127 kts 242°
2026-05-06 17:45 41.31996 2.14544 749 ft 125 kts 243°
2026-05-06 17:45 41.31638 2.13501 551 ft 126 kts 242°
2026-05-06 17:45 41.31277 2.12442 396 ft 124 kts 242°
2026-05-06 17:45 41.30917 2.11406 252 ft 125 kts 242°
2026-05-06 17:46 41.30564 2.10353 87 ft 124 kts 240°
2026-05-06 17:46 41.30213 2.09359 12 ft 104 kts 240°
2026-05-06 17:46 41.30004 2.08783 13 ft 41 kts 248°
2026-05-06 17:46 41.29894 2.08454 15 ft 36 kts 245°
2026-05-06 17:47 41.29764 2.08249 14 ft 24 kts 213°
2026-05-06 17:47 41.29703 2.08194 17 ft 9 kts 214°
2026-05-06 17:47 41.29660 2.08155 17 ft 5 kts 215°
2026-05-06 17:47 41.29656 2.08151 17 ft 0 kts 216°
2026-05-06 17:51 41.29621 2.08117 17 ft 1 kts 218°
2026-05-06 17:51 41.29588 2.08074 17 ft 19 kts 235°
2026-05-06 17:51 41.29536 2.07892 17 ft 19 kts 242°
2026-05-06 17:51 41.29492 2.07771 17 ft 9 kts 245°
2026-05-06 17:52 41.29491 2.07766 17 ft 0 kts 245°
2026-05-06 17:52 41.29480 2.07736 17 ft 5 kts 245°
2026-05-06 17:52 41.29466 2.07695 17 ft 6 kts 245°
2026-05-06 17:52 41.29452 2.07657 17 ft 0 kts 245°
2026-05-06 17:53 41.29441 2.07625 17 ft 13 kts 245°
2026-05-06 17:53 41.29415 2.07543 19 ft 4 kts 246°
2026-05-06 17:53 41.29410 2.07534 18 ft 2 kts 236°
2026-05-06 17:54 41.29407 2.07528 17 ft 0 kts 234°
2026-05-06 17:54 41.29104 2.07797 18 ft 0 kts 155°